Hourly Data Report for April 19, 2020

CLYDE RIVER A
NUNAVUT
Current Station Operator: NAVCAN

70°29'09.000" N
68°31'01.000" W
26.50 m
2400804
71090
YCY

Download Data

Hourly Data (April 2020)
Hourly Data Report for April 19, 2020
TIME
LST
Temp Definition
°C
Dew Point Definition
°C
Rel Hum Definition
%
Precip. Amount Definition
mm

Wind Dir Definition
10's deg

Wind Spd Definition
km/h
Visibility Definition
km
Stn Press Definition
kPa
Hmdx Definition


Wind Chill Definition


Weather Definition


00:00 -17.9 -19.4 88 0.0 12 13 16.1 98.69   -26 LegendNANA
01:00 -19.6 -21.2 87 0.0 15 13 16.1 98.71   -28 LegendNANA
02:00 -22.5 -24.1 87 0.0 6 8 16.1 98.76   -29 LegendNANA
03:00 -21.6 -23.0 88 0.0 32 8 16.1 98.78   -28 LegendNANA
04:00 -23.3 -25.0 86 0.0 LegendMM 4 16.1 98.84   -27 LegendNANA
05:00 -23.3 -25.2 84 0.0 28 4 16.1 98.87   -27 LegendNANA
06:00 -22.1 -23.9 85 0.0 29 5 16.1 98.85   -27 LegendNANA
07:00 -19.5 -21.3 86 0.0 LegendMM 4 16.1 98.89   -23 LegendNANA
08:00 -17.8 -21.1 76 0.0 28 13 16.1 98.89   -26 LegendNANA
09:00 -17.1 -20.5 75 0.0 33 5 16.1 98.92   -21 LegendNANA
10:00 -17.3 -20.1 79 0.0   0 16.1 98.96     LegendNANA
11:00 -17.1 -19.5 82 0.0   0 16.1 99.02     LegendNANA
12:00 -14.1 -19.0 67 0.0 20 26 16.1 99.06   -24 LegendNANA
13:00 -14.2 -19.0 68 0.0 19 32 9.7 99.07   -25 Snow
14:00 -13.6 -18.5 67 0.0 20 11 16.1 99.20   -20 Snow
15:00 -14.5 -18.5 72 0.0 15 30 16.1 99.27   -25 Snow
16:00 -14.6 -18.8 71 0.0 19 28 16.1 99.36   -25 Snow
17:00 -14.8 -19.5 68 0.0 20 28 16.1 99.38   -25 Snow
18:00 -16.8 -19.9 77 0.0 LegendMM 4 16.1 99.48   -20 LegendNANA
19:00 -17.5 -21.7 70 0.0   0 16.1 99.59     LegendNANA
20:00 -19.6 -23.5 72 0.0 28 8 16.1 99.72   -26 LegendNANA
21:00 -17.8 -22.5 67 0.0 22 5 16.1 99.87   -22 LegendNANA
22:00 -18.3 -22.6 69 0.0 23 9 16.1 99.98   -25 LegendNANA
23:00 -23.7 -27.6 71 0.0 34 8 16.1 100.10   -31 LegendNANA

Notes on Data Quality.

Legend

  • E = Estimated
  • M = Missing
  • NA = Not Available*
  • [empty] = Indicates an unobserved value
Date modified: